Location: Newark
(42.9858°N, 0.6717°E)
Time: 08:31:18
(UTC+00:00)

S-56A Canister/Altair - Pass Details

Date: 25 November 2019
Orbit: 633 x 2500 km, 38.9° (Epoch: 12 December)

Event Time Altitude Azimuth Distance (km) Brightness Sun altitude
Rises 18:13:54 0° 272° (W) 5,251 13.3 -19.3°
Reaches altitude 10° 18:17:51 10° 270° (W) 3,963 12.3 -20.0°
Maximum altitude 18:27:25 61° 194° (SSW) 1,361 8.8 -21.7°
Enters shadow 18:30:55 30° 125° (SE) 1,789 9.0 -22.3°
Drops below altitude 10° 18:33:40 10° 114° (ESE) 2,641 - -22.8°
Sets 18:35:51 0° 111° (ESE) 3,413 - -23.2°
